Year,Month,Day,Hour,Minute,Value (Times are PST for temperature in C)
2018,05,23,00,00,14.10
2018,05,23,00,01,14.10
2018,05,23,00,02,14.10
2018,05,23,00,03,14.10
2018,05,23,00,04,14.10
2018,05,23,00,05,14.10
2018,05,23,00,06,14.10
2018,05,23,00,07,14.10
2018,05,23,00,08,14.10
2018,05,23,00,09,14.10
2018,05,23,00,10,14.10
2018,05,23,00,11,14.10
2018,05,23,00,12,14.10
2018,05,23,00,13,14.10
2018,05,23,00,14,14.10
2018,05,23,00,15,14.10
2018,05,23,00,16,14.10
2018,05,23,00,17,14.20
2018,05,23,00,18,14.20
2018,05,23,00,19,14.20
2018,05,23,00,20,14.20
2018,05,23,00,21,14.20
2018,05,23,00,22,14.20
2018,05,23,00,23,14.20
2018,05,23,00,24,14.20
2018,05,23,00,25,14.20
2018,05,23,00,26,14.20
2018,05,23,00,27,14.30
2018,05,23,00,28,14.30
2018,05,23,00,29,14.20
2018,05,23,00,30,14.20
2018,05,23,00,31,14.20
2018,05,23,00,32,14.20
2018,05,23,00,33,14.20
2018,05,23,00,34,14.20
2018,05,23,00,35,14.20
2018,05,23,00,36,14.10
2018,05,23,00,37,14.10
2018,05,23,00,38,14.10
2018,05,23,00,39,14.10
2018,05,23,00,40,14.00
2018,05,23,00,41,14.00
2018,05,23,00,42,14.00
2018,05,23,00,43,13.90
2018,05,23,00,44,13.90
2018,05,23,00,45,13.80
2018,05,23,00,46,13.80
2018,05,23,00,47,13.80
2018,05,23,00,48,13.80
2018,05,23,00,49,13.80
2018,05,23,00,50,13.80
2018,05,23,00,51,13.80
2018,05,23,00,52,13.80
2018,05,23,00,53,13.80
2018,05,23,00,54,13.70
2018,05,23,00,55,13.70
2018,05,23,00,56,13.80
2018,05,23,00,57,13.80
2018,05,23,00,58,13.80
2018,05,23,00,59,13.90
2018,05,23,01,00,13.90
2018,05,23,01,01,13.90
2018,05,23,01,02,13.90
2018,05,23,01,03,13.80
2018,05,23,01,04,13.80
2018,05,23,01,05,13.80
2018,05,23,01,06,13.80
2018,05,23,01,07,13.80
2018,05,23,01,08,13.80
2018,05,23,01,09,13.80
2018,05,23,01,10,13.70
2018,05,23,01,11,13.70
2018,05,23,01,12,13.70
2018,05,23,01,13,13.70
2018,05,23,01,14,13.70
2018,05,23,01,15,13.70
2018,05,23,01,16,13.70
2018,05,23,01,17,13.70
2018,05,23,01,18,13.60
2018,05,23,01,19,13.60
2018,05,23,01,20,13.60
2018,05,23,01,21,13.50
2018,05,23,01,22,13.50
2018,05,23,01,23,13.50
2018,05,23,01,24,13.50
2018,05,23,01,25,13.40
2018,05,23,01,26,13.40
2018,05,23,01,27,13.40
2018,05,23,01,28,13.30
2018,05,23,01,29,13.30
2018,05,23,01,30,13.30
2018,05,23,01,31,13.30
2018,05,23,01,32,13.30
2018,05,23,01,33,13.30
2018,05,23,01,34,13.30
2018,05,23,01,35,13.30
2018,05,23,01,36,13.30
2018,05,23,01,37,13.40
2018,05,23,01,38,13.40
2018,05,23,01,39,13.40
2018,05,23,01,40,13.40
2018,05,23,01,41,13.30
2018,05,23,01,42,13.30
2018,05,23,01,43,13.40
2018,05,23,01,44,13.40
2018,05,23,01,45,13.40
2018,05,23,01,46,13.40
2018,05,23,01,47,13.30
2018,05,23,01,48,13.30
2018,05,23,01,49,13.30
2018,05,23,01,50,13.30
2018,05,23,01,51,13.20
2018,05,23,01,52,13.20
2018,05,23,01,53,13.20
2018,05,23,01,54,13.20
2018,05,23,01,55,13.10
2018,05,23,01,56,13.10
2018,05,23,01,57,13.10
2018,05,23,01,58,13.10
2018,05,23,01,59,13.00
2018,05,23,02,00,13.00
2018,05,23,02,01,12.90
2018,05,23,02,02,12.90
2018,05,23,02,03,12.90
2018,05,23,02,04,12.80
2018,05,23,02,05,12.80
2018,05,23,02,06,12.80
2018,05,23,02,07,12.80
2018,05,23,02,08,12.80
2018,05,23,02,09,12.90
2018,05,23,02,10,12.90
2018,05,23,02,11,12.90
2018,05,23,02,12,12.90
2018,05,23,02,13,12.90
2018,05,23,02,14,12.90
2018,05,23,02,15,12.90
2018,05,23,02,16,12.90
2018,05,23,02,17,12.90
2018,05,23,02,18,12.90
2018,05,23,02,19,12.90
2018,05,23,02,20,12.90
2018,05,23,02,21,12.90
2018,05,23,02,22,12.90
2018,05,23,02,23,12.90
2018,05,23,02,24,12.80
2018,05,23,02,25,12.80
2018,05,23,02,26,12.80
2018,05,23,02,27,12.80
2018,05,23,02,28,12.80
2018,05,23,02,29,12.70
2018,05,23,02,30,12.70
2018,05,23,02,31,12.70
2018,05,23,02,32,12.60
2018,05,23,02,33,12.60
2018,05,23,02,34,12.60
2018,05,23,02,35,12.50
2018,05,23,02,36,12.50
2018,05,23,02,37,12.50
2018,05,23,02,38,12.50
2018,05,23,02,39,12.50
2018,05,23,02,40,12.60
2018,05,23,02,41,12.70
2018,05,23,02,42,12.70
2018,05,23,02,43,12.70
2018,05,23,02,44,12.70
2018,05,23,02,45,12.70
2018,05,23,02,46,12.70
2018,05,23,02,47,12.70
2018,05,23,02,48,12.70
2018,05,23,02,49,12.70
2018,05,23,02,50,12.70
2018,05,23,02,51,12.70
2018,05,23,02,52,12.70
2018,05,23,02,53,12.60
2018,05,23,02,54,12.60
2018,05,23,02,55,12.60
2018,05,23,02,56,12.60
2018,05,23,02,57,12.60
2018,05,23,02,58,12.60
2018,05,23,02,59,12.60
2018,05,23,03,00,12.60
2018,05,23,03,01,12.70
2018,05,23,03,02,12.70
2018,05,23,03,03,12.70
2018,05,23,03,04,12.70
2018,05,23,03,05,12.80
2018,05,23,03,06,12.80
2018,05,23,03,07,12.80
2018,05,23,03,08,12.80
2018,05,23,03,09,12.70
2018,05,23,03,10,12.70
2018,05,23,03,11,12.70
2018,05,23,03,12,12.70
2018,05,23,03,13,12.70
2018,05,23,03,14,12.70
2018,05,23,03,15,12.70
2018,05,23,03,16,12.70
2018,05,23,03,17,12.70
2018,05,23,03,18,12.70
2018,05,23,03,19,12.70
2018,05,23,03,20,12.70
2018,05,23,03,21,12.70
2018,05,23,03,22,12.70
2018,05,23,03,23,12.70
2018,05,23,03,24,12.70
2018,05,23,03,25,12.70
2018,05,23,03,26,12.60
2018,05,23,03,27,12.60
2018,05,23,03,28,12.70
2018,05,23,03,29,12.70
2018,05,23,03,30,12.70
2018,05,23,03,31,12.70
2018,05,23,03,32,12.70
2018,05,23,03,33,12.60
2018,05,23,03,34,12.60
2018,05,23,03,35,12.50
2018,05,23,03,36,12.50
2018,05,23,03,37,12.50
2018,05,23,03,38,12.50
2018,05,23,03,39,12.40
2018,05,23,03,40,12.40
2018,05,23,03,41,12.50
2018,05,23,03,42,12.40
2018,05,23,03,43,12.40
2018,05,23,03,44,12.40
2018,05,23,03,45,12.40
2018,05,23,03,46,12.40
2018,05,23,03,47,12.50
2018,05,23,03,48,12.50
2018,05,23,03,49,12.50
2018,05,23,03,50,12.50
2018,05,23,03,51,12.50
2018,05,23,03,52,12.60
2018,05,23,03,53,12.50
2018,05,23,03,54,12.50
2018,05,23,03,55,12.60
2018,05,23,03,56,12.60
2018,05,23,03,57,12.60
2018,05,23,03,58,12.60
2018,05,23,03,59,12.60
2018,05,23,04,00,12.60
2018,05,23,04,01,12.60
2018,05,23,04,02,12.60
2018,05,23,04,03,12.60
2018,05,23,04,04,12.50
2018,05,23,04,05,12.50
2018,05,23,04,06,12.50
2018,05,23,04,07,12.50
2018,05,23,04,08,12.50
2018,05,23,04,09,12.40
2018,05,23,04,10,12.40
2018,05,23,04,11,12.40
2018,05,23,04,12,12.30
2018,05,23,04,13,12.30
2018,05,23,04,14,12.30
2018,05,23,04,15,12.30
2018,05,23,04,16,12.30
2018,05,23,04,17,12.30
2018,05,23,04,18,12.30
2018,05,23,04,19,12.30
2018,05,23,04,20,12.30
2018,05,23,04,21,12.30
2018,05,23,04,22,12.30
2018,05,23,04,23,12.30
2018,05,23,04,24,12.20
2018,05,23,04,25,12.20
2018,05,23,04,26,12.20
2018,05,23,04,27,12.20
2018,05,23,04,28,12.10
2018,05,23,04,29,12.10
2018,05,23,04,30,12.10
2018,05,23,04,31,12.10
2018,05,23,04,32,12.10
2018,05,23,04,33,12.10
2018,05,23,04,34,12.10
2018,05,23,04,35,12.10
2018,05,23,04,36,12.10
2018,05,23,04,37,12.10
2018,05,23,04,38,12.10
2018,05,23,04,39,12.10
2018,05,23,04,40,12.00
2018,05,23,04,41,12.00
2018,05,23,04,42,12.00
2018,05,23,04,43,12.10
2018,05,23,04,44,12.10
2018,05,23,04,45,12.10
2018,05,23,04,46,12.20
2018,05,23,04,47,12.20
2018,05,23,04,48,12.20
2018,05,23,04,49,12.20
2018,05,23,04,50,12.20
2018,05,23,04,51,12.30
2018,05,23,04,52,12.30
2018,05,23,04,53,12.30
2018,05,23,04,54,12.30
2018,05,23,04,55,12.30
2018,05,23,04,56,12.30
2018,05,23,04,57,12.30
2018,05,23,04,58,12.40
2018,05,23,04,59,12.50
2018,05,23,05,00,12.50
2018,05,23,05,01,12.60
2018,05,23,05,02,12.70
2018,05,23,05,03,12.70
2018,05,23,05,04,12.70
2018,05,23,05,05,12.70
2018,05,23,05,06,12.80
2018,05,23,05,07,12.80
2018,05,23,05,08,12.80
2018,05,23,05,09,12.80
2018,05,23,05,10,12.80
2018,05,23,05,11,12.80
2018,05,23,05,12,12.80
2018,05,23,05,13,12.80
2018,05,23,05,14,12.90
2018,05,23,05,15,12.90
2018,05,23,05,16,12.90
2018,05,23,05,17,13.00
2018,05,23,05,18,13.00
2018,05,23,05,19,13.00
2018,05,23,05,20,13.00
2018,05,23,05,21,13.10
2018,05,23,05,22,13.10
2018,05,23,05,23,13.20
2018,05,23,05,24,13.20
2018,05,23,05,25,13.20
2018,05,23,05,26,13.30
2018,05,23,05,27,13.30
2018,05,23,05,28,13.30
2018,05,23,05,29,13.40
2018,05,23,05,30,13.40
2018,05,23,05,31,13.40
2018,05,23,05,32,13.40
2018,05,23,05,33,13.40
2018,05,23,05,34,13.40
2018,05,23,05,35,13.30
2018,05,23,05,36,13.30
2018,05,23,05,37,13.30
2018,05,23,05,38,13.30
2018,05,23,05,39,13.30
2018,05,23,05,40,13.30
2018,05,23,05,41,13.20
2018,05,23,05,42,13.20
2018,05,23,05,43,13.20
2018,05,23,05,44,13.20
2018,05,23,05,45,13.20
2018,05,23,05,46,13.10
2018,05,23,05,47,13.10
2018,05,23,05,48,13.10
2018,05,23,05,49,13.10
2018,05,23,05,50,13.10
2018,05,23,05,51,13.10
2018,05,23,05,52,13.00
2018,05,23,05,53,13.00
2018,05,23,05,54,13.00
2018,05,23,05,55,13.00
2018,05,23,05,56,13.00
2018,05,23,05,57,12.90
2018,05,23,05,58,12.90
2018,05,23,05,59,12.90
2018,05,23,06,00,12.90
2018,05,23,06,01,12.90
2018,05,23,06,02,12.90
2018,05,23,06,03,12.90
2018,05,23,06,04,12.90
2018,05,23,06,05,12.90
2018,05,23,06,06,12.80
2018,05,23,06,07,12.80
2018,05,23,06,08,12.80
2018,05,23,06,09,12.90
2018,05,23,06,10,12.90
2018,05,23,06,11,13.00
2018,05,23,06,12,13.10
2018,05,23,06,13,13.10
2018,05,23,06,14,13.20
2018,05,23,06,15,13.20
2018,05,23,06,16,13.20
2018,05,23,06,17,13.30
2018,05,23,06,18,13.30
2018,05,23,06,19,13.30
2018,05,23,06,20,13.30
2018,05,23,06,21,13.30
2018,05,23,06,22,13.40
2018,05,23,06,23,13.40
2018,05,23,06,24,13.40
2018,05,23,06,25,13.40
2018,05,23,06,26,13.50
2018,05,23,06,27,13.50
2018,05,23,06,28,13.50
2018,05,23,06,29,13.60
2018,05,23,06,30,13.60
2018,05,23,06,31,13.70
2018,05,23,06,32,13.70
2018,05,23,06,33,13.70
2018,05,23,06,34,13.80
2018,05,23,06,35,13.80
2018,05,23,06,36,13.90
2018,05,23,06,37,14.00
2018,05,23,06,38,14.10
2018,05,23,06,39,14.10
2018,05,23,06,40,14.20
2018,05,23,06,41,14.30
2018,05,23,06,42,14.40
2018,05,23,06,43,14.50
2018,05,23,06,44,14.60
2018,05,23,06,45,14.80
2018,05,23,06,46,14.90
2018,05,23,06,47,15.00
2018,05,23,06,48,15.10
2018,05,23,06,49,15.30
2018,05,23,06,50,15.40
2018,05,23,06,51,15.50
2018,05,23,06,52,15.50
2018,05,23,06,53,15.60
2018,05,23,06,54,15.60
2018,05,23,06,55,15.70
2018,05,23,06,56,15.70
2018,05,23,06,57,15.70
2018,05,23,06,58,15.70
2018,05,23,06,59,15.70
2018,05,23,07,00,15.70
2018,05,23,07,01,15.80
2018,05,23,07,02,15.80
2018,05,23,07,03,15.80
2018,05,23,07,04,15.80
2018,05,23,07,05,15.80
2018,05,23,07,06,15.80
2018,05,23,07,07,15.80
2018,05,23,07,08,15.80
2018,05,23,07,09,15.90
2018,05,23,07,10,16.00
2018,05,23,07,11,16.10
2018,05,23,07,12,16.20
2018,05,23,07,13,16.40
2018,05,23,07,14,16.60
2018,05,23,07,15,16.70
2018,05,23,07,16,16.90
2018,05,23,07,17,17.00
2018,05,23,07,18,17.10
2018,05,23,07,19,17.30
2018,05,23,07,20,17.40
2018,05,23,07,21,17.50
2018,05,23,07,22,17.60
2018,05,23,07,23,17.70
2018,05,23,07,24,17.70
2018,05,23,07,25,17.80
2018,05,23,07,26,17.80
2018,05,23,07,27,17.80
2018,05,23,07,28,17.90
2018,05,23,07,29,18.00
2018,05,23,07,30,18.00
2018,05,23,07,31,18.10
2018,05,23,07,32,18.10
2018,05,23,07,33,18.10
2018,05,23,07,34,18.10
2018,05,23,07,35,18.20
2018,05,23,07,36,18.20
2018,05,23,07,37,18.20
2018,05,23,07,38,18.20
2018,05,23,07,39,18.30
2018,05,23,07,40,18.30
2018,05,23,07,41,18.30
2018,05,23,07,42,18.30
2018,05,23,07,43,18.30
2018,05,23,07,44,18.20
2018,05,23,07,45,18.20
2018,05,23,07,46,18.10
2018,05,23,07,47,18.10
2018,05,23,07,48,18.10
2018,05,23,07,49,18.10
2018,05,23,07,50,18.10
2018,05,23,07,51,18.10
2018,05,23,07,52,18.10
2018,05,23,07,53,18.10
2018,05,23,07,54,18.10
2018,05,23,07,55,18.10
2018,05,23,07,56,18.10
2018,05,23,07,57,18.10
2018,05,23,07,58,18.00
2018,05,23,07,59,18.00
2018,05,23,08,00,17.90
2018,05,23,08,01,17.90
2018,05,23,08,02,17.90
2018,05,23,08,03,17.90
2018,05,23,08,04,18.00
2018,05,23,08,05,17.90
2018,05,23,08,06,17.90
2018,05,23,08,07,17.90
2018,05,23,08,08,17.80
2018,05,23,08,09,17.80
2018,05,23,08,10,17.80
2018,05,23,08,11,17.80
2018,05,23,08,12,17.80
2018,05,23,08,13,17.90
2018,05,23,08,14,17.90
2018,05,23,08,15,17.90
2018,05,23,08,16,18.00
2018,05,23,08,17,18.00
2018,05,23,08,18,18.00
2018,05,23,08,19,18.00
2018,05,23,08,20,18.00
2018,05,23,08,21,18.00
2018,05,23,08,22,18.00
2018,05,23,08,23,18.00
2018,05,23,08,24,18.00
2018,05,23,08,25,18.00
2018,05,23,08,26,18.10
2018,05,23,08,27,18.00
2018,05,23,08,28,17.90
2018,05,23,08,29,17.90
2018,05,23,08,30,17.90
2018,05,23,08,31,18.00
2018,05,23,08,32,18.10
2018,05,23,08,33,18.10
2018,05,23,08,34,18.10
2018,05,23,08,35,18.10
2018,05,23,08,36,18.10
2018,05,23,08,37,18.10
2018,05,23,08,38,18.10
2018,05,23,08,39,18.10
2018,05,23,08,40,18.10
2018,05,23,08,41,18.20
2018,05,23,08,42,18.30
2018,05,23,08,43,18.30
2018,05,23,08,44,18.40
2018,05,23,08,45,18.40
2018,05,23,08,46,18.50
2018,05,23,08,47,18.50
2018,05,23,08,48,18.50
2018,05,23,08,49,18.60
2018,05,23,08,50,18.50
2018,05,23,08,51,18.40
2018,05,23,08,52,18.30
2018,05,23,08,53,18.30
2018,05,23,08,54,18.30
2018,05,23,08,55,18.40
2018,05,23,08,56,18.30
2018,05,23,08,57,18.30
2018,05,23,08,58,18.40
2018,05,23,08,59,18.40
2018,05,23,09,00,18.40
2018,05,23,09,01,18.50
2018,05,23,09,02,18.50
2018,05,23,09,03,18.40
2018,05,23,09,04,18.40
2018,05,23,09,05,18.30
2018,05,23,09,06,18.30
2018,05,23,09,07,18.30
2018,05,23,09,08,18.30
2018,05,23,09,09,18.40
2018,05,23,09,10,18.40
2018,05,23,09,11,18.40
2018,05,23,09,12,18.40
2018,05,23,09,13,18.50
2018,05,23,09,14,18.60
2018,05,23,09,15,18.70
2018,05,23,09,16,18.70
2018,05,23,09,17,18.70
2018,05,23,09,18,18.80
2018,05,23,09,19,18.80
2018,05,23,09,20,18.80
2018,05,23,09,21,18.70
2018,05,23,09,22,18.70
2018,05,23,09,23,18.70
2018,05,23,09,24,18.70
2018,05,23,09,25,18.80
2018,05,23,09,26,18.80
2018,05,23,09,27,18.90
2018,05,23,09,28,18.90
2018,05,23,09,29,18.90
2018,05,23,09,30,18.80
2018,05,23,09,31,18.80
2018,05,23,09,32,18.80
2018,05,23,09,33,18.80
2018,05,23,09,34,18.80
2018,05,23,09,35,18.90
2018,05,23,09,36,18.90
2018,05,23,09,37,19.00
2018,05,23,09,38,19.10
2018,05,23,09,39,19.10
2018,05,23,09,40,19.10
2018,05,23,09,41,19.10
2018,05,23,09,42,19.10
2018,05,23,09,43,19.10
2018,05,23,09,44,19.10
2018,05,23,09,45,19.10
2018,05,23,09,46,19.10
2018,05,23,09,47,19.10
2018,05,23,09,48,19.20
2018,05,23,09,49,19.20
2018,05,23,09,50,19.20
2018,05,23,09,51,19.20
2018,05,23,09,52,19.20
2018,05,23,09,53,19.20
2018,05,23,09,54,19.20
2018,05,23,09,55,19.20
2018,05,23,09,56,19.10
2018,05,23,09,57,19.10
2018,05,23,09,58,19.20
2018,05,23,09,59,19.30
2018,05,23,10,00,19.30
2018,05,23,10,01,19.30
2018,05,23,10,02,19.30
2018,05,23,10,03,19.30
2018,05,23,10,04,19.40
2018,05,23,10,05,19.50
2018,05,23,10,06,19.50
2018,05,23,10,07,19.40
2018,05,23,10,08,19.40
2018,05,23,10,09,19.30
2018,05,23,10,10,19.30
2018,05,23,10,11,19.30
2018,05,23,10,12,19.30
2018,05,23,10,13,19.30
2018,05,23,10,14,19.30
2018,05,23,10,15,19.40
2018,05,23,10,16,19.40
2018,05,23,10,17,19.40
2018,05,23,10,18,19.40
2018,05,23,10,19,19.40
2018,05,23,10,20,19.40
2018,05,23,10,21,19.40
2018,05,23,10,22,19.50
2018,05,23,10,23,19.60
2018,05,23,10,24,19.70
2018,05,23,10,25,19.70
2018,05,23,10,26,19.80
2018,05,23,10,27,19.80
2018,05,23,10,28,19.90
2018,05,23,10,29,20.00
2018,05,23,10,30,20.10
2018,05,23,10,31,20.10
2018,05,23,10,32,20.10
2018,05,23,10,33,20.10
2018,05,23,10,34,20.20
2018,05,23,10,35,20.20
2018,05,23,10,36,20.20
2018,05,23,10,37,20.20
2018,05,23,10,38,20.30
2018,05,23,10,39,20.30
2018,05,23,10,40,20.30
2018,05,23,10,41,20.30
2018,05,23,10,42,20.30
2018,05,23,10,43,20.30
2018,05,23,10,44,20.30
2018,05,23,10,45,20.20
2018,05,23,10,46,20.20
2018,05,23,10,47,20.20
2018,05,23,10,48,20.20
2018,05,23,10,49,20.20
2018,05,23,10,50,20.10
2018,05,23,10,51,20.10
2018,05,23,10,52,20.10
2018,05,23,10,53,20.10
2018,05,23,10,54,20.10
2018,05,23,10,55,20.00
2018,05,23,10,56,19.90
2018,05,23,10,57,19.90
2018,05,23,10,58,19.80
2018,05,23,10,59,19.70
2018,05,23,11,00,19.70
2018,05,23,11,01,19.80
2018,05,23,11,02,19.90
2018,05,23,11,03,19.90
2018,05,23,11,04,19.90
2018,05,23,11,05,19.90
2018,05,23,11,06,19.90
2018,05,23,11,07,19.90
2018,05,23,11,08,19.90
2018,05,23,11,09,19.90
2018,05,23,11,10,19.80
2018,05,23,11,11,19.80
2018,05,23,11,12,19.80
2018,05,23,11,13,19.90
2018,05,23,11,14,19.90
2018,05,23,11,15,20.00
2018,05,23,11,16,20.10
2018,05,23,11,17,20.20
2018,05,23,11,18,20.30
2018,05,23,11,19,20.30
2018,05,23,11,20,20.20
2018,05,23,11,21,20.10
2018,05,23,11,22,20.10
2018,05,23,11,23,20.10
2018,05,23,11,24,20.10
2018,05,23,11,25,20.10
2018,05,23,11,26,20.10
2018,05,23,11,27,20.10
2018,05,23,11,28,20.10
2018,05,23,11,29,20.00
2018,05,23,11,30,20.10
2018,05,23,11,31,20.20
2018,05,23,11,32,20.20
2018,05,23,11,33,20.30
2018,05,23,11,34,20.30
2018,05,23,11,35,20.40
2018,05,23,11,36,20.50
2018,05,23,11,37,20.60
2018,05,23,11,38,20.60
2018,05,23,11,39,20.60
2018,05,23,11,40,20.50
2018,05,23,11,41,20.40
2018,05,23,11,42,20.40
2018,05,23,11,43,20.50
2018,05,23,11,44,20.60
2018,05,23,11,45,20.70
2018,05,23,11,46,20.70
2018,05,23,11,47,20.70
2018,05,23,11,48,20.70
2018,05,23,11,49,20.80
2018,05,23,11,50,20.80
2018,05,23,11,51,20.70
2018,05,23,11,52,20.70
2018,05,23,11,53,20.70
2018,05,23,11,54,20.70
2018,05,23,11,55,20.60
2018,05,23,11,56,20.50
2018,05,23,11,57,20.40
2018,05,23,11,58,20.40
2018,05,23,11,59,20.50
2018,05,23,12,00,20.60
2018,05,23,12,01,20.80
2018,05,23,12,02,20.80
2018,05,23,12,03,20.80
2018,05,23,12,04,20.90
2018,05,23,12,05,21.00
2018,05,23,12,06,21.10
2018,05,23,12,07,21.10
2018,05,23,12,08,21.20
2018,05,23,12,09,21.20
2018,05,23,12,10,21.20
2018,05,23,12,11,21.20
2018,05,23,12,12,21.20
2018,05,23,12,13,21.30
2018,05,23,12,14,21.30
2018,05,23,12,15,21.50
2018,05,23,12,16,21.50
2018,05,23,12,17,21.60
2018,05,23,12,18,21.60
2018,05,23,12,19,21.60
2018,05,23,12,20,21.60
2018,05,23,12,21,21.70
2018,05,23,12,22,21.60
2018,05,23,12,23,21.40
2018,05,23,12,24,21.30
2018,05,23,12,25,21.30
2018,05,23,12,26,21.30
2018,05,23,12,27,21.40
2018,05,23,12,28,21.60
2018,05,23,12,29,21.70
2018,05,23,12,30,21.90
2018,05,23,12,31,21.90
2018,05,23,12,32,21.90
2018,05,23,12,33,21.70
2018,05,23,12,34,21.70
2018,05,23,12,35,21.60
2018,05,23,12,36,21.50
2018,05,23,12,37,21.40
2018,05,23,12,38,21.40
2018,05,23,12,39,21.40
2018,05,23,12,40,21.40
2018,05,23,12,41,21.50
2018,05,23,12,42,21.50
2018,05,23,12,43,21.60
2018,05,23,12,44,21.80
2018,05,23,12,45,21.80
2018,05,23,12,46,22.00
2018,05,23,12,47,22.10
2018,05,23,12,48,22.10
2018,05,23,12,49,22.10
2018,05,23,12,50,22.10
2018,05,23,12,51,22.00
2018,05,23,12,52,22.00
2018,05,23,12,53,22.10
2018,05,23,12,54,22.10
2018,05,23,12,55,22.10
2018,05,23,12,56,22.10
2018,05,23,12,57,22.10
2018,05,23,12,58,22.20
2018,05,23,12,59,22.30
2018,05,23,13,00,22.30
2018,05,23,13,01,22.30
2018,05,23,13,02,22.40
2018,05,23,13,03,22.50
2018,05,23,13,04,22.50
2018,05,23,13,05,22.60
2018,05,23,13,06,22.70
2018,05,23,13,07,22.80
2018,05,23,13,08,22.90
2018,05,23,13,09,23.00
2018,05,23,13,10,22.90
2018,05,23,13,11,22.80
2018,05,23,13,12,22.60
2018,05,23,13,13,22.40
2018,05,23,13,14,22.30
2018,05,23,13,15,22.30
2018,05,23,13,16,22.20
2018,05,23,13,17,22.30
2018,05,23,13,18,22.30
2018,05,23,13,19,22.40
2018,05,23,13,20,22.40
2018,05,23,13,21,22.40
2018,05,23,13,22,22.40
2018,05,23,13,23,22.20
2018,05,23,13,24,22.10
2018,05,23,13,25,21.90
2018,05,23,13,26,21.90
2018,05,23,13,27,21.90
2018,05,23,13,28,21.90
2018,05,23,13,29,21.90
2018,05,23,13,30,22.00
2018,05,23,13,31,22.10
2018,05,23,13,32,22.20
2018,05,23,13,33,22.40
2018,05,23,13,34,22.40
2018,05,23,13,35,22.50
2018,05,23,13,36,22.50
2018,05,23,13,37,22.50
2018,05,23,13,38,22.50
2018,05,23,13,39,22.50
2018,05,23,13,40,22.50
2018,05,23,13,41,22.60
2018,05,23,13,42,22.60
2018,05,23,13,43,22.70
2018,05,23,13,44,22.70
2018,05,23,13,45,22.70
2018,05,23,13,46,22.70
2018,05,23,13,47,22.60
2018,05,23,13,48,22.60
2018,05,23,13,49,22.60
2018,05,23,13,50,22.60
2018,05,23,13,51,22.70
2018,05,23,13,52,22.80
2018,05,23,13,53,22.80
2018,05,23,13,54,22.90
2018,05,23,13,55,22.90
2018,05,23,13,56,22.90
2018,05,23,13,57,22.80
2018,05,23,13,58,22.80
2018,05,23,13,59,22.70
2018,05,23,14,00,22.50
2018,05,23,14,01,22.50
2018,05,23,14,02,22.50
2018,05,23,14,03,22.60
2018,05,23,14,04,22.60
2018,05,23,14,05,22.70
2018,05,23,14,06,22.70
2018,05,23,14,07,22.80
2018,05,23,14,08,22.90
2018,05,23,14,09,22.90
2018,05,23,14,10,22.90
2018,05,23,14,11,22.90
2018,05,23,14,12,22.90
2018,05,23,14,13,22.90
2018,05,23,14,14,22.90
2018,05,23,14,15,22.90
2018,05,23,14,16,22.90
2018,05,23,14,17,22.80
2018,05,23,14,18,22.70
2018,05,23,14,19,22.70
2018,05,23,14,20,22.70
2018,05,23,14,21,22.60
2018,05,23,14,22,22.60
2018,05,23,14,23,22.70
2018,05,23,14,24,22.80
2018,05,23,14,25,22.90
2018,05,23,14,26,23.00
2018,05,23,14,27,23.10
2018,05,23,14,28,23.20
2018,05,23,14,29,23.20
2018,05,23,14,30,23.20
2018,05,23,14,31,23.20
2018,05,23,14,32,23.10
2018,05,23,14,33,23.00
2018,05,23,14,34,22.90
2018,05,23,14,35,22.80
2018,05,23,14,36,22.80
2018,05,23,14,37,22.90
2018,05,23,14,38,23.00
2018,05,23,14,39,23.10
2018,05,23,14,40,23.00
2018,05,23,14,41,23.10
2018,05,23,14,42,23.20
2018,05,23,14,43,23.30
2018,05,23,14,44,23.30
2018,05,23,14,45,23.20
2018,05,23,14,46,23.20
2018,05,23,14,47,23.30
2018,05,23,14,48,23.30
2018,05,23,14,49,23.50
2018,05,23,14,50,23.60
2018,05,23,14,51,23.60
2018,05,23,14,52,23.50
2018,05,23,14,53,23.40
2018,05,23,14,54,23.40
2018,05,23,14,55,23.30
2018,05,23,14,56,23.10
2018,05,23,14,57,23.10
2018,05,23,14,58,23.00
2018,05,23,14,59,23.10
2018,05,23,15,00,23.20
2018,05,23,15,01,23.30
2018,05,23,15,02,23.30
2018,05,23,15,03,23.30
2018,05,23,15,04,23.30
2018,05,23,15,05,23.20
2018,05,23,15,06,23.10
2018,05,23,15,07,23.10
2018,05,23,15,08,23.00
2018,05,23,15,09,23.00
2018,05,23,15,10,23.00
2018,05,23,15,11,22.90
2018,05,23,15,12,22.80
2018,05,23,15,13,22.90
2018,05,23,15,14,22.90
2018,05,23,15,15,23.00
2018,05,23,15,16,23.00
2018,05,23,15,17,22.90
2018,05,23,15,18,22.90
2018,05,23,15,19,22.90
2018,05,23,15,20,22.90
2018,05,23,15,21,22.90
2018,05,23,15,22,23.00
2018,05,23,15,23,23.10
2018,05,23,15,24,23.10
2018,05,23,15,25,23.20
2018,05,23,15,26,23.20
2018,05,23,15,27,23.20
2018,05,23,15,28,23.30
2018,05,23,15,29,23.30
2018,05,23,15,30,23.30
2018,05,23,15,31,23.40
2018,05,23,15,32,23.50
2018,05,23,15,33,23.50
2018,05,23,15,34,23.60
2018,05,23,15,35,23.70
2018,05,23,15,36,23.70
2018,05,23,15,37,23.70
2018,05,23,15,38,23.70
2018,05,23,15,39,23.70
2018,05,23,15,40,23.70
2018,05,23,15,41,23.70
2018,05,23,15,42,23.70
2018,05,23,15,43,23.70
2018,05,23,15,44,23.70
2018,05,23,15,45,23.70
2018,05,23,15,46,23.80
2018,05,23,15,47,23.90
2018,05,23,15,48,24.00
2018,05,23,15,49,24.00
2018,05,23,15,50,24.00
2018,05,23,15,51,24.10
2018,05,23,15,52,24.10
2018,05,23,15,53,24.00
2018,05,23,15,54,23.90
2018,05,23,15,55,23.80
2018,05,23,15,56,23.80
2018,05,23,15,57,23.80
2018,05,23,15,58,23.80
2018,05,23,15,59,23.80
2018,05,23,16,00,23.80
2018,05,23,16,01,23.80
2018,05,23,16,02,23.70
2018,05,23,16,03,23.60
2018,05,23,16,04,23.60
2018,05,23,16,05,23.60
2018,05,23,16,06,23.60
2018,05,23,16,07,23.60
2018,05,23,16,08,23.60
2018,05,23,16,09,23.70
2018,05,23,16,10,23.80
2018,05,23,16,11,23.90
2018,05,23,16,12,23.90
2018,05,23,16,13,23.90
2018,05,23,16,14,23.90
2018,05,23,16,15,23.90
2018,05,23,16,16,23.90
2018,05,23,16,17,24.00
2018,05,23,16,18,24.10
2018,05,23,16,19,24.10
2018,05,23,16,20,24.10
2018,05,23,16,21,24.00
2018,05,23,16,22,24.00
2018,05,23,16,23,23.90
2018,05,23,16,24,23.80
2018,05,23,16,25,23.80
2018,05,23,16,26,23.80
2018,05,23,16,27,23.70
2018,05,23,16,28,23.70
2018,05,23,16,29,23.70
2018,05,23,16,30,23.70
2018,05,23,16,31,23.70
2018,05,23,16,32,23.70
2018,05,23,16,33,23.70
2018,05,23,16,34,23.70
2018,05,23,16,35,23.60
2018,05,23,16,36,23.60
2018,05,23,16,37,23.60
2018,05,23,16,38,23.70
2018,05,23,16,39,23.80
2018,05,23,16,40,23.80
2018,05,23,16,41,23.80
2018,05,23,16,42,23.80
2018,05,23,16,43,23.80
2018,05,23,16,44,23.80
2018,05,23,16,45,23.80
2018,05,23,16,46,23.80
2018,05,23,16,47,23.80
2018,05,23,16,48,23.80
2018,05,23,16,49,23.80
2018,05,23,16,50,23.80
2018,05,23,16,51,23.80
2018,05,23,16,52,23.80
2018,05,23,16,53,23.80
2018,05,23,16,54,23.80
2018,05,23,16,55,23.90
2018,05,23,16,56,24.00
2018,05,23,16,57,24.00
2018,05,23,16,58,24.10
2018,05,23,16,59,24.20
2018,05,23,17,00,24.30
2018,05,23,17,01,24.40
2018,05,23,17,02,24.30
2018,05,23,17,03,24.30
2018,05,23,17,04,24.30
2018,05,23,17,05,24.30
2018,05,23,17,06,24.20
2018,05,23,17,07,24.10
2018,05,23,17,08,24.10
2018,05,23,17,09,24.10
2018,05,23,17,10,24.10
2018,05,23,17,11,24.00
2018,05,23,17,12,24.00
2018,05,23,17,13,24.00
2018,05,23,17,14,24.00
2018,05,23,17,15,24.10
2018,05,23,17,16,24.10
2018,05,23,17,17,24.20
2018,05,23,17,18,24.20
2018,05,23,17,19,24.20